Location: Goheenville
(40.9070°N, 79.3720°W)
Time: 04:19:09
(UTC-04:00)

Cosmos 1727 Rocket - Visible Passes

Search period start: 25 July 2014 00:00
Search period end: 04 August 2014 00:00
Orbit: 961 x 996 km, 82.9° (Epoch: 23 July)

Date Brightness Start Highest point End Pass type
(mag) Time Alt. Az. Time Alt. Az. Time Alt. Az.
25 Jul 4.9 01:16:00 36° W 01:16:57 38° WNW 01:22:41 10° N visible
25 Jul 4.0 23:57:25 57° ESE 23:57:50 59° E 00:03:55 10° NNE visible
26 Jul 5.7 01:42:08 19° W 01:43:43 21° WNW 01:48:17 10° NNW visible
26 Jul 5.7 22:38:49 15° E 22:39:34 15° E 22:42:51 10° NE visible
27 Jul 3.9 00:23:32 70° SW 00:24:11 77° W 00:30:25 10° N visible
27 Jul 6.3 02:09:10 10° WNW 02:10:44 11° WNW 02:12:17 10° NW visible
27 Jul 4.9 23:04:55 28° E 23:05:32 28° E 23:10:42 10° NNE visible
28 Jul 4.8 00:49:38 39° WSW 00:50:43 42° WNW 00:56:35 10° N visible
28 Jul 4.1 23:31:00 50° ESE 23:31:40 53° E 23:37:41 10° NNE visible
29 Jul 5.6 01:15:43 21° W 01:17:27 23° WNW 01:22:18 10° NNW visible
29 Jul 5.7 22:12:21 13° E 22:13:29 13° E 22:16:13 10° NE visible
29 Jul 3.9 23:57:04 67° SSW 23:57:59 85° W 00:04:15 10° N visible
30 Jul 6.3 01:41:58 10° W 01:44:25 12° WNW 01:46:53 10° NW visible
30 Jul 5.0 22:38:24 25° E 22:39:24 26° E 22:44:21 10° NNE visible
31 Jul 4.7 00:23:07 40° WSW 00:24:29 46° WNW 00:30:28 10° N visible
31 Jul 4.3 23:04:26 43° ESE 23:05:30 47° E 23:11:26 10° NNE visible
01 Aug 5.6 00:49:09 22° W 00:51:11 26° WNW 00:56:17 10° NNW visible
01 Aug 5.8 21:45:44 11° E 21:47:23 12° ENE 21:49:25 10° ENE visible
01 Aug 3.9 23:30:27 58° S 23:31:47 87° E 23:38:04 10° N visible
02 Aug 6.3 01:15:10 10° W 01:18:07 14° WNW 01:21:13 10° NW visible
02 Aug 5.2 22:11:43 21° ESE 22:13:17 23° E 22:18:00 10° NE visible
02 Aug 4.6 23:56:26 39° SW 23:58:16 51° WNW 00:04:21 10° N visible
03 Aug 4.4 22:37:41 35° SE 22:39:21 43° E 22:45:11 10° NNE visible
